sat.trackr.live / text

‹ back to catalog

STARLINK-2130

NORAD 47405 · 2021-005BJ

PAYLOAD ACTIVE UNKNOWN

§ Identity

Operator
Country
US
Launch date
2021-01-20
Launch site
AFETR
Launch vehicle
Mass (kg)
RCS (m²)

Purposes: comms

External: N2YO · Heavens-Above · Gunter

§ Orbital elements

Epoch: 2026-09-14T00:44:16.738656Z

Period
94.01 min
Inclination
53.1604°
Eccentricity
0.0001087
Mean motion
15.31700117 rev/d
Perigee alt
470.0 km
Apogee alt
471.5 km
Semi-major
6,848.9 km
B*
-7.3242e-6
RAAN
265.9347°
Arg perigee
91.2733°
Mean anomaly
268.8393°
Rev number
31,188

§ Raw data

STARLINK-21301 47405U 21005BJ  26257.03074929 -.00000592  00000+0 -73242-5 0  99942 47405  53.1604 265.9347 0001087  91.2733 268.8393 15.31700117311884

JSON: /api/v1/satellites/47405 · /tle

For live sub-satellite position, see the globe view (requires WebGL).

§ Visibility from observer

Set your observer location to see the next 7 days of passes ≥ 10°. The values pass through the URL so the page stays shareable.

No JS? Fill the form by hand. The geolocation button needs JavaScript.